Flag for Germany Weather past 2 weeks in Berlin, Berlin, Germany

Now
79 °F

Warm.


Feels Like: 81 °F
Forecast: 55 / 69 °F
Wind: 3 mph from South

Location: Berlin-Tempelhof

Current Time: Sep 1, 2015 at 2:22:09 AM

Latest Report: Sep 1, 2015 at 2:00 AM


Visibility: N/A

Pressure: 29.75 "Hg

Humidity: 67%

Dew point: 67 °F

Location of BerlinLocation

Historic Weather in Berlin — Graph

°F

Berlin temperature yesterday

Maximum temperature yesterday: 95 °F (at 4:00 PM)
Minimum temperature yesterday: 66 °F (at 7:00 AM)
Average temperature yesterday: 81 °F

Past Weeks' High & Low Weather Summary

 TemperatureHumidityPressure
High95 °F (Aug 31, 4:00 PM)97% (Aug 20, 4:00 AM)30.33 "Hg (Aug 20, 4:00 AM)
Low54 °F (Aug 29, 4:00 AM)20% (Aug 22, 5:00 PM)29.72 "Hg (Aug 24, 11:00 PM)
Average69 °F61%30.03 "Hg
* Reported Aug 17 1:00 AM — Sep 1 1:00 AM, Berlin, Weather by CustomWeather, © 2015

Note: Actual official high and low records may vary slightly from our data, if they occured in-between our weather recording intervals... More about our weather records

Advertising

Berlin weather history for previous 24 hours

 ConditionsComfort  
Time TempWeatherWind HumidityBarometerVisibility
1:00 AM
Tue, Sep 1
79 °FWarm.2 mph66%29.74 "HgN/A
11:00 PM
Mon, Aug 31
78 °FWarm.1 mph67%29.76 "HgN/A
10:00 PM80 °FWarm.1 mph62%29.77 "HgN/A
9:00 PM87 °FWarm.2 mph48%29.77 "HgN/A
8:00 PM90 °FHot.2 mph41%29.78 "HgN/A
7:00 PM93 °FHot.3 mph36%29.78 "HgN/A
6:00 PM95 °FExtremely hot.2 mph34%29.79 "HgN/A
5:00 PM95 °FExtremely hot.3 mph33%29.80 "HgN/A
4:00 PM95 °FExtremely hot.5 mph33%29.83 "HgN/A
3:00 PM94 °FExtremely hot.3 mph34%29.86 "HgN/A
2:00 PM94 °FExtremely hot.3 mph35%29.88 "HgN/A
1:00 PM91 °FHot.3 mph43%29.90 "HgN/A
12:00 PM87 °FWarm.3 mph50%29.92 "HgN/A
11:00 AM83 °FWarm.2 mph55%29.93 "HgN/A
10:00 AM79 °FWarm.2 mph63%29.93 "HgN/A
9:00 AM75 °FMild.1 mph68%29.95 "HgN/A
8:00 AM68 °FMild.1 mph87%29.96 "HgN/A
7:00 AM66 °FMild.1 mph87%29.97 "HgN/A
5:00 AM66 °FMild.1 mph87%29.97 "HgN/A
4:00 AM67 °FMild.1 mph86%29.98 "HgN/A
3:00 AM68 °FMild.2 mph84%29.99 "HgN/A
2:00 AM69 °FMild.2 mph84%30.00 "HgN/A
Weather by CustomWeather, © 2015

See weather overviewHow to use our weather pages